Date,TemperatureHighF,TemperatureAvgF,TemperatureLowF,DewpointHighF,DewpointAvgF,DewpointLowF,HumidityHigh,HumidityAvg,HumidityLow,PressureMaxIn,PressureMinIn,WindSpeedMaxMPH,WindSpeedAvgMPH,GustSpeedMaxMPH,PrecipitationSumIn
2013-3-1,37,34,29,27,23,20,74,65,56,29.95,29.79,14,3,14,0.00
2013-3-2,33,30,28,21,18,14,74,61,50,29.95,29.88,14,4,16,0.00
2013-3-3,32,29,26,18,15,12,65,56,46,30.02,29.90,18,5,18,0.00
2013-3-4,41,30,23,18,13,9,72,50,31,30.12,30.02,21,4,21,0.00
2013-3-5,53,37,25,32,21,12,96,57,24,30.10,29.71,11,1,12,0.06
2013-3-6,38,33,30,35,31,25,98,92,62,30.10,29.70,14,2,14,0.66
2013-3-7,40,37,35,28,27,24,75,66,55,30.24,30.09,18,4,18,0.17
2013-3-8,40,34,26,28,24,22,85,66,55,30.41,30.24,19,4,20,0.00
2013-3-9,58,36,21,29,24,19,94,67,23,30.44,30.25,6,0,6,0.00
2013-3-10,66,46,26,32,27,24,93,56,24,30.30,30.11,20,2,20,0.00
2013-3-11,60,54,46,47,34,23,71,48,25,30.11,29.78,18,4,25,0.00
2013-3-12,58,47,39,49,38,25,96,70,51,30.02,29.71,22,4,22,0.19
2013-3-13,43,35,28,29,22,15,86,61,34,30.14,29.95,30,5,30,0.00
2013-3-14,42,34,27,19,15,12,65,46,33,30.24,30.13,26,5,30,0.00
2013-3-15,56,41,25,33,24,15,74,52,34,30.15,29.81,19,3,20,0.00
2013-3-16,55,46,40,44,38,32,90,75,54,29.88,29.60,14,2,14,0.01
2013-3-17,43,37,32,39,30,26,93,78,65,30.24,29.88,14,1,14,0.00
2013-3-18,34,32,30,33,30,29,98,94,84,30.26,29.86,9,0,10,0.34
2013-3-19,53,41,32,38,22,4,99,58,16,29.98,29.76,40,7,40,0.10
2013-3-20,48,39,31,29,14,6,90,39,21,30.01,29.78,31,6,31,0.00
2013-3-21,32,27,24,24,13,5,78,55,34,29.96,29.83,21,4,25,0.00
2013-3-22,45,33,26,17,14,10,61,45,28,30.04,29.92,21,4,22,0.00
2013-3-23,52,36,20,23,18,13,86,53,23,30.07,29.94,14,2,17,0.00
2013-3-24,40,31,26,30,24,19,97,77,44,30.00,29.61,7,0,8,0.00
2013-3-25,38,32,30,35,31,26,98,93,70,29.74,29.53,11,0,11,0.55
2013-3-26,43,37,33,29,27,24,82,66,49,30.08,29.74,16,3,18,0.04
2013-3-27,44,37,31,28,26,22,82,62,46,30.17,30.08,21,5,21,0.01
2013-3-28,46,39,36,29,25,23,65,57,47,30.27,30.14,20,4,21,0.00
2013-3-29,54,43,35,31,26,18,76,53,27,30.28,30.16,14,2,16,0.00
2013-3-30,59,42,28,31,25,19,90,57,22,30.28,30.07,12,1,12,0.00
2013-3-31,44,39,34,42,36,27,98,89,66,30.08,29.77,8,0,8,0.17